Location: Chomutov
(50.4500°N, 13.4333°E)
Time: 02:01:12
(UTC+02:00)

FO-29 - Pass Details

Date: 28 September 2021
Orbit: 800 x 1321 km, 98.6° (Epoch: 27 October)

Event Time Altitude Azimuth Distance (km) Brightness Sun altitude
Exits shadow 20:09:03 16° 111° (ESE) 2,848 11.3 -13.2°
Maximum altitude 20:14:17 35° 57° (ENE) 2,008 10.8 -14.0°
Drops below altitude 10° 20:21:09 10° 356° (N) 3,344 12.5 -15.1°
Sets 20:24:05 0° 349° (NNW) 4,289 13.2 -15.5°
